Time,TemperatureF,DewpointF,PressureIn,WindDirection,WindDirectionDegrees,WindSpeedMPH,WindSpeedGustMPH,Humidity,HourlyPrecipIn,Conditions,Clouds,dailyrainin,SoftwareType,DateUTC
2013-01-07 00:00:00,45.0,42.6,29.72,SE,135,1.1,1.1,91,0.00,,,0.00,WUHU216HW,2013-01-07 08:00:00,
2013-01-07 00:05:00,45.0,42.6,29.71,ESE,113,1.8,1.8,91,0.00,,,0.00,WUHU216HW,2013-01-07 08:05:00,
2013-01-07 00:10:00,45.0,42.6,29.71,ESE,113,1.8,1.8,91,0.00,,,0.00,WUHU216HW,2013-01-07 08:10:00,
2013-01-07 00:31:00,45.0,42.6,29.73,SE,135,2.2,2.2,91,0.00,,,0.00,WUHU216HW,2013-01-07 08:31:00,
2013-01-07 00:36:00,45.0,42.8,29.72,ESE,113,1.3,2.5,92,0.00,,,0.00,WUHU216HW,2013-01-07 08:36:00,
2013-01-07 00:41:00,45.0,42.8,29.72,ESE,113,1.3,2.5,92,0.00,,,0.00,WUHU216HW,2013-01-07 08:41:00,
2013-01-07 01:00:00,44.6,42.5,29.71,SE,135,2.0,2.0,92,0.00,,,0.00,WUHU216HW,2013-01-07 09:00:00,
2013-01-07 01:05:00,44.6,42.5,29.71,ENE,68,0.4,2.0,92,0.00,,,0.00,WUHU216HW,2013-01-07 09:05:00,
2013-01-07 01:10:00,44.6,42.5,29.71,ENE,68,0.4,1.3,92,0.00,,,0.00,WUHU216HW,2013-01-07 09:10:00,
2013-01-07 01:31:00,44.8,42.4,29.71,SE,135,0.4,0.4,91,0.00,,,0.00,WUHU216HW,2013-01-07 09:31:00,
2013-01-07 01:36:00,44.8,42.7,29.69,ESE,113,1.3,2.7,92,0.00,,,0.00,WUHU216HW,2013-01-07 09:36:00,
2013-01-07 01:41:00,44.8,42.7,29.69,ESE,113,1.3,2.7,92,0.00,,,0.00,WUHU216HW,2013-01-07 09:41:00,
2013-01-07 02:00:00,45.0,42.6,29.74,SE,135,1.1,1.1,91,0.00,,,0.00,WUHU216HW,2013-01-07 10:00:00,
2013-01-07 02:05:00,45.0,42.6,29.71,SSE,158,0.2,1.6,91,0.00,,,0.00,WUHU216HW,2013-01-07 10:05:00,
2013-01-07 02:10:00,45.0,42.6,29.71,SSE,158,0.2,1.6,91,0.00,,,0.00,WUHU216HW,2013-01-07 10:10:00,
2013-01-07 02:31:00,44.6,42.5,29.72,SSE,158,1.3,1.3,92,0.00,,,0.00,WUHU216HW,2013-01-07 10:31:00,
2013-01-07 02:36:00,44.6,42.5,29.70,West,270,1.1,2.7,92,0.00,,,0.00,WUHU216HW,2013-01-07 10:36:00,
2013-01-07 02:41:00,44.6,42.5,29.70,West,270,1.1,2.7,92,0.00,,,0.00,WUHU216HW,2013-01-07 10:41:00,
2013-01-07 03:00:00,45.0,42.6,29.72,NE,45,0.4,0.4,91,0.00,,,0.00,WUHU216HW,2013-01-07 11:00:00,
2013-01-07 03:05:00,45.0,42.6,29.69,ESE,113,0.9,0.9,91,0.00,,,0.00,WUHU216HW,2013-01-07 11:05:00,
2013-01-07 03:10:00,45.0,42.6,29.69,ESE,113,0.9,0.9,91,0.00,,,0.00,WUHU216HW,2013-01-07 11:10:00,
2013-01-07 03:31:00,44.8,42.4,29.71,East,90,2.2,2.2,91,0.00,,,0.00,WUHU216HW,2013-01-07 11:31:00,
2013-01-07 03:36:00,44.8,42.4,29.69,WSW,248,0.2,2.9,91,0.00,,,0.00,WUHU216HW,2013-01-07 11:36:00,
2013-01-07 03:41:00,44.8,42.4,29.69,WSW,248,0.2,2.9,91,0.00,,,0.00,WUHU216HW,2013-01-07 11:41:00,
2013-01-07 04:00:00,44.8,42.7,29.69,NNE,23,1.6,1.6,92,0.00,,,0.00,WUHU216HW,2013-01-07 12:00:00,
2013-01-07 04:05:00,44.8,42.7,29.69,SE,135,2.5,2.5,92,0.00,,,0.00,WUHU216HW,2013-01-07 12:05:00,
2013-01-07 04:10:00,44.8,42.7,29.69,SE,135,2.5,2.5,92,0.00,,,0.00,WUHU216HW,2013-01-07 12:10:00,
2013-01-07 04:31:00,44.8,42.4,29.71,SSE,158,0.4,0.4,91,0.00,,,0.00,WUHU216HW,2013-01-07 12:31:00,
2013-01-07 04:36:00,45.0,42.6,29.68,West,270,2.0,2.0,91,0.00,,,0.00,WUHU216HW,2013-01-07 12:36:00,
2013-01-07 04:41:00,45.0,42.6,29.68,West,270,2.0,2.0,91,0.00,,,0.00,WUHU216HW,2013-01-07 12:41:00,
2013-01-07 05:00:00,44.8,42.4,29.69,NNE,23,0.7,0.7,91,0.00,,,0.00,WUHU216HW,2013-01-07 13:00:00,
2013-01-07 05:05:00,44.8,42.4,29.68,ENE,68,0.0,0.7,91,0.00,,,0.00,WUHU216HW,2013-01-07 13:05:00,
2013-01-07 05:10:00,44.8,42.4,29.68,ENE,68,0.0,0.7,91,0.00,,,0.00,WUHU216HW,2013-01-07 13:10:00,
2013-01-07 05:31:00,45.0,42.6,29.67,WSW,248,0.2,0.2,91,0.00,,,0.00,WUHU216HW,2013-01-07 13:31:00,
2013-01-07 05:36:00,45.0,42.8,29.65,SSE,158,1.6,2.0,92,0.00,,,0.00,WUHU216HW,2013-01-07 13:36:00,
2013-01-07 05:41:00,45.0,42.8,29.65,SSE,158,1.6,2.0,92,0.00,,,0.00,WUHU216HW,2013-01-07 13:41:00,
2013-01-07 06:00:00,45.2,43.0,29.68,East,90,0.2,0.2,92,0.00,,,0.00,WUHU216HW,2013-01-07 14:00:00,
2013-01-07 06:05:00,45.2,43.0,29.68,South,180,0.0,0.4,92,0.00,,,0.00,WUHU216HW,2013-01-07 14:05:00,
2013-01-07 06:10:00,45.2,43.0,29.68,South,180,0.0,0.4,92,0.00,,,0.00,WUHU216HW,2013-01-07 14:10:00,
2013-01-07 06:31:00,45.0,43.1,29.68,ENE,68,0.9,0.9,93,0.00,,,0.00,WUHU216HW,2013-01-07 14:31:00,
2013-01-07 06:36:00,45.0,43.1,29.66,ESE,113,1.1,2.7,93,0.00,,,0.00,WUHU216HW,2013-01-07 14:36:00,
2013-01-07 06:41:00,45.0,43.1,29.66,ESE,113,1.1,2.7,93,0.00,,,0.00,WUHU216HW,2013-01-07 14:41:00,
2013-01-07 07:00:00,45.4,43.5,29.68,NW,315,0.0,0.0,93,0.00,,,0.00,WUHU216HW,2013-01-07 15:00:00,
2013-01-07 07:05:00,45.4,43.5,29.68,SSE,158,0.4,0.4,93,0.00,,,0.00,WUHU216HW,2013-01-07 15:05:00,
2013-01-07 07:10:00,45.4,43.5,29.68,SSE,158,0.4,0.4,93,0.00,,,0.00,WUHU216HW,2013-01-07 15:10:00,
2013-01-07 07:31:00,45.5,43.7,29.70,ESE,113,0.0,0.0,93,0.00,,,0.00,WUHU216HW,2013-01-07 15:31:00,
2013-01-07 07:36:00,45.5,43.7,29.68,ESE,113,0.0,0.4,93,0.00,,,0.00,WUHU216HW,2013-01-07 15:36:00,
2013-01-07 07:41:00,45.5,43.7,29.68,ESE,113,0.0,0.4,93,0.00,,,0.00,WUHU216HW,2013-01-07 15:41:00,
2013-01-07 08:00:00,45.7,43.8,29.69,SE,135,1.3,1.3,93,0.00,,,0.00,WUHU216HW,2013-01-07 16:00:00,
2013-01-07 08:05:00,45.7,43.8,29.69,East,90,0.4,1.3,93,0.00,,,0.00,WUHU216HW,2013-01-07 16:05:00,
2013-01-07 08:09:00,45.7,43.8,29.69,East,90,0.4,1.3,93,0.00,,,0.00,WUHU216HW,2013-01-07 16:09:00,
2013-01-07 08:31:00,46.1,44.5,29.70,NNE,23,0.4,0.4,94,0.00,,,0.00,WUHU216HW,2013-01-07 16:31:00,
2013-01-07 08:36:00,46.1,44.5,29.68,South,180,0.4,0.4,94,0.00,,,0.00,WUHU216HW,2013-01-07 16:36:00,
2013-01-07 08:41:00,46.1,44.5,29.68,South,180,0.4,0.4,94,0.00,,,0.00,WUHU216HW,2013-01-07 16:41:00,
2013-01-07 09:00:00,46.3,44.6,29.72,SE,135,1.8,1.8,94,0.00,,,0.00,WUHU216HW,2013-01-07 17:00:00,
2013-01-07 09:05:00,46.3,44.6,29.71,ENE,68,0.7,3.1,94,0.00,,,0.00,WUHU216HW,2013-01-07 17:05:00,
2013-01-07 09:10:00,46.3,44.6,29.71,ENE,68,0.7,3.1,94,0.00,,,0.00,WUHU216HW,2013-01-07 17:10:00,
2013-01-07 09:31:00,46.6,45.0,29.75,ESE,113,1.3,1.3,94,0.00,,,0.00,WUHU216HW,2013-01-07 17:31:00,
2013-01-07 09:36:00,46.8,45.2,29.74,ESE,113,0.9,1.3,94,0.00,,,0.00,WUHU216HW,2013-01-07 17:36:00,
2013-01-07 09:41:00,46.8,45.2,29.74,ESE,113,0.9,1.3,94,0.00,,,0.00,WUHU216HW,2013-01-07 17:41:00,
2013-01-07 10:00:00,47.0,45.6,29.76,East,90,0.9,0.9,95,0.00,,,0.00,WUHU216HW,2013-01-07 18:00:00,
2013-01-07 10:05:00,47.0,45.6,29.75,East,90,1.8,1.8,95,0.00,,,0.00,WUHU216HW,2013-01-07 18:05:00,
2013-01-07 10:10:00,47.0,45.6,29.75,East,90,1.8,1.8,95,0.00,,,0.00,WUHU216HW,2013-01-07 18:10:00,
2013-01-07 10:31:00,47.2,45.8,29.76,ESE,113,0.0,0.0,95,0.00,,,0.00,WUHU216HW,2013-01-07 18:31:00,
2013-01-07 10:36:00,47.2,45.8,29.76,SW,225,0.4,1.1,95,0.00,,,0.00,WUHU216HW,2013-01-07 18:36:00,
2013-01-07 10:41:00,47.2,45.8,29.76,SW,225,0.4,1.1,95,0.00,,,0.00,WUHU216HW,2013-01-07 18:41:00,
2013-01-07 11:00:00,47.9,46.5,29.77,East,90,0.4,0.4,95,0.00,,,0.00,WUHU216HW,2013-01-07 19:00:00,
2013-01-07 11:05:00,47.9,46.5,29.76,ESE,113,1.8,1.8,95,0.00,,,0.00,WUHU216HW,2013-01-07 19:05:00,
2013-01-07 11:10:00,47.9,46.5,29.76,ESE,113,1.8,1.8,95,0.00,,,0.00,WUHU216HW,2013-01-07 19:10:00,
2013-01-07 11:31:00,48.6,47.3,29.76,NW,315,0.4,0.4,95,0.00,,,0.00,WUHU216HW,2013-01-07 19:31:00,
2013-01-07 11:36:00,48.6,47.3,29.76,WSW,248,1.6,2.0,95,0.00,,,0.00,WUHU216HW,2013-01-07 19:36:00,
2013-01-07 11:41:00,48.6,47.3,29.76,WSW,248,1.6,2.0,95,0.00,,,0.00,WUHU216HW,2013-01-07 19:41:00,
2013-01-07 12:00:00,49.5,48.1,29.77,SE,135,0.0,0.0,95,0.00,,,0.00,WUHU216HW,2013-01-07 20:00:00,
2013-01-07 12:05:00,49.5,48.1,29.76,ESE,113,0.7,0.7,95,0.00,,,0.00,WUHU216HW,2013-01-07 20:05:00,
2013-01-07 12:10:00,49.5,48.1,29.76,ESE,113,0.7,0.7,95,0.00,,,0.00,WUHU216HW,2013-01-07 20:10:00,
2013-01-07 12:31:00,50.2,48.8,29.77,ESE,113,0.4,0.4,95,0.00,,,0.00,WUHU216HW,2013-01-07 20:31:00,
2013-01-07 12:36:00,50.2,48.8,29.76,ESE,113,0.2,0.4,95,0.00,,,0.00,WUHU216HW,2013-01-07 20:36:00,
2013-01-07 12:41:00,50.2,48.8,29.76,ESE,113,0.2,0.4,95,0.00,,,0.00,WUHU216HW,2013-01-07 20:41:00,
2013-01-07 13:00:00,51.8,50.1,29.76,ENE,68,0.4,0.4,94,0.00,,,0.00,WUHU216HW,2013-01-07 21:00:00,
2013-01-07 13:05:00,51.8,50.1,29.75,ENE,68,0.2,0.4,94,0.00,,,0.00,WUHU216HW,2013-01-07 21:05:00,
2013-01-07 13:10:00,51.8,50.1,29.75,ENE,68,0.2,0.4,94,0.00,,,0.00,WUHU216HW,2013-01-07 21:10:00,
2013-01-07 13:31:00,52.2,50.2,29.76,WSW,248,0.0,0.0,93,0.00,,,0.00,WUHU216HW,2013-01-07 21:31:00,
2013-01-07 13:36:00,52.2,50.2,29.76,West,270,0.0,0.0,93,0.00,,,0.00,WUHU216HW,2013-01-07 21:36:00,
2013-01-07 13:41:00,52.2,50.2,29.76,West,270,0.0,0.0,93,0.00,,,0.00,WUHU216HW,2013-01-07 21:41:00,
2013-01-07 14:00:00,52.2,49.9,29.78,WNW,293,0.0,0.0,92,0.00,,,0.00,WUHU216HW,2013-01-07 22:00:00,
2013-01-07 14:05:00,52.2,49.9,29.77,WSW,248,0.4,0.4,92,0.00,,,0.00,WUHU216HW,2013-01-07 22:05:00,
2013-01-07 14:10:00,52.2,49.9,29.77,WSW,248,0.4,0.4,92,0.00,,,0.00,WUHU216HW,2013-01-07 22:10:00,
2013-01-07 14:31:00,52.7,50.4,29.78,West,270,0.0,0.0,92,0.00,,,0.00,WUHU216HW,2013-01-07 22:31:00,
2013-01-07 14:36:00,52.6,50.2,29.78,West,270,0.0,0.0,92,0.00,,,0.00,WUHU216HW,2013-01-07 22:36:00,
2013-01-07 14:41:00,52.6,50.2,29.78,West,270,0.0,0.0,92,0.00,,,0.00,WUHU216HW,2013-01-07 22:41:00,
2013-01-07 15:00:00,53.1,50.8,29.80,West,270,0.9,0.9,92,0.00,,,0.00,WUHU216HW,2013-01-07 23:00:00,
2013-01-07 15:05:00,53.1,50.8,29.80,West,270,0.4,1.1,92,0.00,,,0.00,WUHU216HW,2013-01-07 23:05:00,
2013-01-07 15:10:00,53.1,50.8,29.80,West,270,0.4,1.1,92,0.00,,,0.00,WUHU216HW,2013-01-07 23:10:00,
2013-01-07 15:31:00,52.2,49.6,29.81,West,270,0.4,0.4,91,0.00,,,0.00,WUHU216HW,2013-01-07 23:31:00,
2013-01-07 15:36:00,52.2,49.6,29.80,West,270,0.0,0.4,91,0.00,,,0.00,WUHU216HW,2013-01-07 23:36:00,
2013-01-07 15:41:00,52.2,49.6,29.80,West,270,0.0,0.4,91,0.00,,,0.00,WUHU216HW,2013-01-07 23:41:00,
2013-01-07 16:00:00,51.1,48.2,29.81,NNW,338,0.0,0.0,90,0.00,,,0.00,WUHU216HW,2013-01-08 00:00:00,
2013-01-07 16:05:00,51.1,48.2,29.80,NNW,338,0.0,0.0,90,0.00,,,0.00,WUHU216HW,2013-01-08 00:05:00,
2013-01-07 16:10:00,51.1,48.2,29.80,NNW,338,0.0,0.0,90,0.00,,,0.00,WUHU216HW,2013-01-08 00:10:00,
2013-01-07 16:31:00,50.4,47.8,29.82,West,270,0.0,0.0,91,0.00,,,0.00,WUHU216HW,2013-01-08 00:31:00,
2013-01-07 16:36:00,50.2,47.6,29.81,West,270,0.0,0.0,91,0.00,,,0.00,WUHU216HW,2013-01-08 00:36:00,
2013-01-07 16:41:00,50.2,47.6,29.81,West,270,0.0,0.0,91,0.00,,,0.00,WUHU216HW,2013-01-08 00:41:00,
2013-01-07 17:00:00,49.5,47.3,29.81,West,270,0.0,0.0,92,0.00,,,0.00,WUHU216HW,2013-01-08 01:00:00,
2013-01-07 17:05:00,49.3,47.1,29.81,West,270,0.0,0.0,92,0.00,,,0.00,WUHU216HW,2013-01-08 01:05:00,
2013-01-07 17:10:00,49.3,47.1,29.81,West,270,0.0,0.0,92,0.00,,,0.00,WUHU216HW,2013-01-08 01:10:00,
2013-01-07 17:31:00,48.6,46.7,29.81,West,270,0.0,0.0,93,0.00,,,0.00,WUHU216HW,2013-01-08 01:31:00,
2013-01-07 17:36:00,48.6,46.7,29.80,West,270,0.0,0.0,93,0.00,,,0.00,WUHU216HW,2013-01-08 01:36:00,
2013-01-07 17:41:00,48.6,46.7,29.80,West,270,0.0,0.0,93,0.00,,,0.00,WUHU216HW,2013-01-08 01:41:00,
2013-01-07 18:00:00,48.2,46.4,29.82,West,270,0.0,0.0,93,0.00,,,0.00,WUHU216HW,2013-01-08 02:00:00,
2013-01-07 18:05:00,48.2,46.4,29.82,West,270,0.0,0.0,93,0.00,,,0.00,WUHU216HW,2013-01-08 02:05:00,
2013-01-07 18:10:00,48.2,46.4,29.82,West,270,0.0,0.0,93,0.00,,,0.00,WUHU216HW,2013-01-08 02:10:00,
2013-01-07 18:31:00,48.2,46.4,29.82,West,270,0.0,0.0,93,0.00,,,0.00,WUHU216HW,2013-01-08 02:31:00,
2013-01-07 18:36:00,48.1,46.2,29.80,West,270,0.0,0.0,93,0.00,,,0.00,WUHU216HW,2013-01-08 02:36:00,
2013-01-07 18:41:00,48.1,46.2,29.80,West,270,0.0,0.0,93,0.00,,,0.00,WUHU216HW,2013-01-08 02:41:00,
2013-01-07 19:00:00,48.2,46.1,29.84,West,270,0.0,0.0,92,0.00,,,0.00,WUHU216HW,2013-01-08 03:00:00,
2013-01-07 19:05:00,48.2,46.1,29.84,West,270,0.4,0.4,92,0.00,,,0.00,WUHU216HW,2013-01-08 03:05:00,
2013-01-07 19:10:00,48.2,46.1,29.84,West,270,0.4,0.4,92,0.00,,,0.00,WUHU216HW,2013-01-08 03:10:00,
2013-01-07 19:31:00,48.1,45.9,29.83,West,270,0.0,0.0,92,0.00,,,0.00,WUHU216HW,2013-01-08 03:31:00,
2013-01-07 19:36:00,48.1,45.9,29.83,West,270,0.0,0.0,92,0.00,,,0.00,WUHU216HW,2013-01-08 03:36:00,
2013-01-07 19:41:00,48.1,45.9,29.83,West,270,0.0,0.0,92,0.00,,,0.00,WUHU216HW,2013-01-08 03:41:00,
2013-01-07 23:42:00,47.3,45.2,29.86,East,90,0.0,0.0,92,0.00,,,0.00,WUHU216HW,2013-01-08 07:42:00,
2013-01-07 23:47:00,47.3,45.2,29.81,East,90,0.0,0.0,92,0.00,,,0.00,WUHU216HW,2013-01-08 07:47:00,
2013-01-07 23:52:00,47.3,45.2,29.81,East,90,0.0,0.0,92,0.00,,,0.00,WUHU216HW,2013-01-08 07:52:00,